Погода в Нуринске

Россия / Забайкальский край     51°04′59″N   115°39′53″E
темп.,
°C
ветер,
м/с
пор.,
м/с
влажн.,
%
обл.,
%
осадки,
мм/ч
давл.,
гПа
погр.,
м
9 декабря, чт
чт900:00−12ююв1192100 0.0 101910
03:00−12юз2292100 0.0 102011
06:00−13з119097 0.0 102110
09:00−13зсз1191100 0.0 102311
12:00−8сз31280100 0.0 1024360
15:00−7сз61375100 0.0 1024567
18:00−11сз3680100 0.0 102895
21:00−13зсз238692 0.0 103041
10 декабря, пт
пт1000:00−15юз11885 0.0 103210
03:00−16юз11915 0.0 10329
06:00−17ююз1194100 0.0 10339
09:00−16ю219399 0.0 103312
12:00−11з2479100 0.0 1032176
15:00−10зсз4878100 0.0 1030624
18:00−16з228746 0.0 103310
21:00−18з22895 0.0 103419
11 декабря, сб
сб1100:00−19зюз22925 0.0 103421
03:00−19юз229313 0.0 103321
06:00−18юз229373 0.0 103218
09:00−19юз22945 0.0 103218
12:00−13зсз512785 0.0 1030854
15:00−12зсз8117058 0.0 10291195
18:00−15зсз614725 0.0 1031420
21:00−17зсз513753 0.0 1032369
12 декабря, вс
вс1200:00−17сз614770 0.0 1032401
03:00−20зсз35864 0.0 103486
06:00−22зсз22914 0.0 103514
09:00−23юз11925 0.0 10359
12:00−18зюз22795 0.0 1034164
15:00−16юз24765 0.0 1030402
18:00−20ююв3293100 0.0 102921
21:00−19ююв3391100 0.0 102649
13 декабря, пн
пн1300:00−17ююв3489100 0.0 1022128
03:00−16ююв2388100 0.0 101879
06:00−17ююв2291100 0.0 101627
09:00−15ю1188100 0.0 101520
12:00−11зсз1175100 0.0 101476
15:00−10ссз118198 0.0 101222
18:00−13ююв1187100 0.0 10149
21:00−14ю2291100 0.0 101512